When you browse on this site, cookies collect data to enhance your experience and personalize the content and advertising you see.
Visit our Privacy Policy to learn more. By continuing to use the site, you agree to this use of cookies and data.
  • In Czech Republic
  • List of Countries
  • For 7 days
  • Water Temperature
  • Weather Map
  • Weather Widgets
  • user-avatar
    Login

    Hourly Weather Bekren

    Today, 16 February, Sunday

    Time Temperature Precipitation Wind Pressure Humidity
    00:00 -5°C° 0 mm 4 mps 753 mmHg 92%
    01:00 -5°C° 0 mm 4 mps 753 mmHg 92%
    02:00 -5°C° 0 mm 4 mps 752 mmHg 92%
    03:00 -6°C° 0 mm 5 mps 752 mmHg 93%
    04:00 -5°C° 0 mm 5 mps 752 mmHg 92%
    05:00 -5°C° 0 mm 5 mps 751 mmHg 92%
    06:00 -5°C° 0 mm 5 mps 751 mmHg 91%
    07:00 -5°C° 0 mm 5 mps 751 mmHg 91%
    08:00 -5°C° 0 mm 5 mps 750 mmHg 91%
    09:00 -5°C° 0 mm 6 mps 750 mmHg 90%
    10:00 -4°C° 0.1 mm 6 mps 750 mmHg 89%
    11:00 -3°C° 0.1 mm 6 mps 750 mmHg 88%
    12:00 -3°C° 0.1 mm 6 mps 749 mmHg 87%
    13:00 -3°C° 0 mm 6 mps 749 mmHg 89%
    14:00 -3°C° 0 mm 6 mps 749 mmHg 91%
    15:00 -1°C° 0 mm 5 mps 749 mmHg 88%
    16:00 -1°C° 0.1 mm 5 mps 748 mmHg 88%
    17:00 -1°C° 0.1 mm 5 mps 748 mmHg 88%
    18:00 -2°C° 0.1 mm 6 mps 747 mmHg 88%
    19:00 -3°C° 0 mm 6 mps 747 mmHg 88%
    20:00 -3°C° 0 mm 6 mps 746 mmHg 88%
    21:00 -3°C° 0 mm 6 mps 745 mmHg 87%
    22:00 -3°C° 0 mm 6 mps 745 mmHg 87%
    23:00 -3°C° 0 mm 6 mps 744 mmHg 86%

    Tomorrow, 17 February, Monday

    Time Temperature Precipitation Wind Pressure Humidity
    00:00 -3°C° 0 mm 6 mps 743 mmHg 86%
    01:00 -3°C° 0 mm 7 mps 742 mmHg 85%
    02:00 -3°C° 0 mm 7 mps 742 mmHg 85%
    03:00 -2°C° 0 mm 7 mps 741 mmHg 85%
    04:00 -2°C° 1.1 mm 7 mps 740 mmHg 88%
    05:00 -2°C° 1.1 mm 8 mps 739 mmHg 91%
    06:00 -2°C° 1.1 mm 8 mps 738 mmHg 93%
    07:00 -2°C° 0.1 mm 8 mps 738 mmHg 93%
    08:00 -1°C° 0.1 mm 8 mps 737 mmHg 94%
    09:00 -1°C° 0.1 mm 8 mps 737 mmHg 94%
    10:00 -1°C° 0.1 mm 8 mps 736 mmHg 93%
    11:00 -1°C° 0.1 mm 8 mps 736 mmHg 93%
    12:00 -1°C° 0.1 mm 8 mps 735 mmHg 92%
    13:00 0°C° 0 mm 8 mps 735 mmHg 92%
    14:00 0°C° 0 mm 8 mps 735 mmHg 92%
    15:00 0°C° 0 mm 9 mps 734 mmHg 92%
    16:00 0°C° 0 mm 8 mps 734 mmHg 91%
    17:00 +1°C° 0 mm 8 mps 735 mmHg 90%
    18:00 +1°C° 0 mm 8 mps 735 mmHg 89%
    19:00 +2°C° 0.2 mm 7 mps 736 mmHg 87%
    20:00 +2°C° 0.2 mm 7 mps 736 mmHg 85%
    21:00 +1°C° 0.2 mm 6 mps 737 mmHg 83%
    22:00 +1°C° 0 mm 6 mps 737 mmHg 81%
    23:00 +1°C° 0 mm 6 mps 738 mmHg 80%

    Day after tomorrow, 18 February, Tuesday

    Time Temperature Precipitation Wind Pressure Humidity
    00:00 -1°C° 0 mm 6 mps 738 mmHg 78%
    01:00 -1°C° 0 mm 6 mps 738 mmHg 79%
    02:00 -1°C° 0 mm 6 mps 739 mmHg 80%
    03:00 -2°C° 0 mm 6 mps 740 mmHg 81%
    04:00 -2°C° 0 mm 6 mps 739 mmHg 82%
    05:00 -2°C° 0 mm 6 mps 739 mmHg 83%
    06:00 -2°C° 0 mm 6 mps 739 mmHg 83%
    07:00 -2°C° 0 mm 6 mps 739 mmHg 83%
    08:00 -2°C° 0 mm 6 mps 739 mmHg 82%
    09:00 -2°C° 0 mm 7 mps 739 mmHg 81%
    10:00 -2°C° 0 mm 7 mps 739 mmHg 82%
    11:00 -1°C° 0 mm 6 mps 739 mmHg 83%
    12:00 -1°C° 0 mm 6 mps 739 mmHg 84%
    13:00 -1°C° 0 mm 6 mps 739 mmHg 84%
    14:00 -1°C° 0 mm 6 mps 739 mmHg 84%
    15:00 -1°C° 0 mm 6 mps 739 mmHg 84%
    16:00 0°C° 0 mm 5 mps 738 mmHg 84%
    17:00 0°C° 0 mm 5 mps 738 mmHg 85%
    18:00 -1°C° 0 mm 5 mps 738 mmHg 85%
    19:00 -1°C° 0 mm 5 mps 738 mmHg 86%
    20:00 -1°C° 0 mm 5 mps 738 mmHg 88%
    21:00 -1°C° 0 mm 5 mps 738 mmHg 90%
    22:00 -1°C° 0 mm 5 mps 738 mmHg 90%
    23:00 -1°C° 0 mm 4 mps 738 mmHg 90%

    19 February, Wednesday

    Time Temperature Precipitation Wind Pressure Humidity
    00:00 -1°C° 0 mm 4 mps 737 mmHg 91%
    01:00 -1°C° 0.1 mm 4 mps 738 mmHg 91%
    02:00 -1°C° 0.1 mm 4 mps 738 mmHg 92%
    03:00 -1°C° 0.1 mm 4 mps 738 mmHg 93%
    04:00 -1°C° 0.1 mm 4 mps 737 mmHg 94%
    05:00 -1°C° 0.1 mm 5 mps 737 mmHg 95%
    06:00 -1°C° 0.1 mm 5 mps 737 mmHg 96%
    07:00 -1°C° 0.1 mm 5 mps 737 mmHg 97%
    08:00 -1°C° 0.1 mm 5 mps 738 mmHg 97%
    09:00 -1°C° 0.1 mm 5 mps 738 mmHg 97%
    10:00 -1°C° 0 mm 5 mps 738 mmHg 94%
    11:00 -1°C° 0 mm 5 mps 738 mmHg 92%
    12:00 -1°C° 0 mm 5 mps 738 mmHg 90%
    13:00 -1°C° 0 mm 5 mps 739 mmHg 89%
    14:00 -1°C° 0 mm 5 mps 739 mmHg 87%
    15:00 0°C° 0 mm 5 mps 740 mmHg 86%
    16:00 -1°C° 0 mm 5 mps 740 mmHg 86%
    17:00 -1°C° 0 mm 5 mps 740 mmHg 86%
    18:00 -2°C° 0 mm 5 mps 740 mmHg 86%
    19:00 -2°C° 0 mm 4 mps 740 mmHg 87%
    20:00 -2°C° 0 mm 4 mps 741 mmHg 88%
    21:00 -2°C° 0 mm 4 mps 741 mmHg 89%
    22:00 -2°C° 0 mm 4 mps 741 mmHg 89%
    23:00 -2°C° 0 mm 4 mps 742 mmHg 90%

    20 February, Thursday

    Time Temperature Precipitation Wind Pressure Humidity
    00:00 -2°C° 0 mm 4 mps 742 mmHg 90%
    01:00 -2°C° 0 mm 4 mps 742 mmHg 90%
    02:00 -3°C° 0 mm 4 mps 743 mmHg 91%
    03:00 -3°C° 0 mm 4 mps 743 mmHg 91%
    04:00 -3°C° 0 mm 4 mps 743 mmHg 91%
    05:00 -2°C° 0 mm 3 mps 743 mmHg 91%
    06:00 -2°C° 0 mm 3 mps 743 mmHg 91%
    07:00 -2°C° 0.1 mm 3 mps 743 mmHg 92%
    08:00 -2°C° 0.1 mm 4 mps 743 mmHg 93%
    09:00 -2°C° 0.1 mm 4 mps 744 mmHg 94%
    10:00 -2°C° 0 mm 4 mps 744 mmHg 91%
    11:00 -1°C° 0 mm 4 mps 744 mmHg 89%
    12:00 -1°C° 0 mm 4 mps 744 mmHg 87%
    13:00 -1°C° 0 mm 4 mps 744 mmHg 85%
    14:00 -1°C° 0 mm 4 mps 745 mmHg 84%
    15:00 0°C° 0 mm 4 mps 745 mmHg 82%
    16:00 -1°C° 0 mm 4 mps 745 mmHg 85%
    17:00 -1°C° 0 mm 4 mps 745 mmHg 88%
    18:00 -2°C° 0 mm 4 mps 745 mmHg 91%
    19:00 -1°C° 0.1 mm 3 mps 746 mmHg 93%
    20:00 -1°C° 0.1 mm 3 mps 746 mmHg 94%
    21:00 -1°C° 0.1 mm 3 mps 747 mmHg 95%
    22:00 -1°C° 0 mm 3 mps 747 mmHg 95%
    23:00 -1°C° 0 mm 2 mps 747 mmHg 96%

    21 February, Friday

    Time Temperature Precipitation Wind Pressure Humidity
    00:00 -1°C° 0 mm 2 mps 748 mmHg 96%
    01:00 -1°C° 0 mm 2 mps 748 mmHg 96%
    02:00 -1°C° 0 mm 2 mps 749 mmHg 95%
    03:00 -2°C° 0 mm 2 mps 749 mmHg 95%
    04:00 -2°C° 0 mm 2 mps 749 mmHg 95%
    05:00 -2°C° 0 mm 2 mps 749 mmHg 94%
    06:00 -2°C° 0 mm 2 mps 749 mmHg 94%
    07:00 -2°C° 0 mm 2 mps 750 mmHg 94%
    08:00 -2°C° 0 mm 2 mps 750 mmHg 93%
    09:00 -3°C° 0 mm 2 mps 750 mmHg 93%
    16:00 -2°C° 0 mm 4 mps 749 mmHg 85%
    17:00 -2°C° 0 mm 4 mps 749 mmHg 84%
    18:00 -2°C° 0 mm 4 mps 749 mmHg 83%
    19:00 -2°C° 0 mm 4 mps 748 mmHg 84%
    20:00 -2°C° 0 mm 4 mps 748 mmHg 85%
    21:00 -2°C° 0 mm 4 mps 748 mmHg 85%
    22:00 -2°C° 0 mm 4 mps 748 mmHg 86%
    23:00 -3°C° 0 mm 4 mps 748 mmHg 87%
    Show more